If you wish to contribute or participate in the discussions about articles you are invited to join SKYbrary as a registered user

 Actions

Wick Airport

From SKYbrary Wiki

EGPC
Airport
ICAO: EGPC – IATA: WIC
Summary
Name Wick Airport
Region Europe
Territory United Kingdom GB.gif
Location Wick, Scotland
Serving Wick
Elevation 38.405 m <br />126 ft <br />126 ft38.405 m <br />
Coordinates 58° 27' 29.13" N, 3° 5' 29.63" W
Runways
Designator Length Width Surface ROPS
8/26 1036 m3,398.95 ft <br /> 45 m147.638 ft <br /> ASP /
13/31 1825 m5,987.533 ft <br /> 45 m147.638 ft <br /> ASP /


METAR
Observation EGPC 161520Z AUTO 25005KT 9999 FEW038/// 11/03 Q1014
Station Wick
Date/Time 16 October 2021 15:20:00
Wind direction 250°
Wind speed 05 kts
Lowest cloud amount few clouds
Temperature 11°C
Dew point 3°C
Humidity 57%
QNH 1014 hPa
Weather condition n/a

Wick Airport

ICAO: EGPC IATA: WIC

Description

Wick Airport is located north of the small town of Wick in Caithness at the north-eastern extremity of the mainland of Scotland.

Climatology

Temperate Marine climate/Oceanic climate (Köppen climate classification Cfb). Moderately cool summer and comparatively warm winter with a temperature range of only 14°C57.2 °F <br />287.15 K <br />516.87 °R <br />. Prevailing south-westerly winds from the Atlantic Ocean.

Maps

Terrain

Loading map...

Airport Layout

Loading map...


Accidents & Serious Incidents at or in vicinity of EGPC

None on SKYbrary